Weather History for Corinth, MS

Change the Weather History Date:

Monday, December 3, 2012

  Actual Average Record
Temperature  
Mean Temperature 63 °F -  
Max Temperature 73 °F 59 °F 77 °F (1970)
Min Temperature 53 °F 36 °F 17 °F (1979)
Degree Days  
Heating Degree Days 2    
Growing Degree Days 13 (Base 50)    
Moisture  
Dew Point 52 °F    
Average Humidity 71    
Maximum Humidity 94    
Minimum Humidity 44    
Precipitation  
Precipitation 0.00 in - - ()
Sea Level Pressure  
Sea Level Pressure 30.17 in    
Wind  
Wind Speed 9 mph (SSE)    
Max Wind Speed 15 mph    
Max Gust Speed 20 mph    
Visibility 10 miles    
Events      
Averages and records for this station are not official NWS values.
T = Trace of Precipitation, MM = Missing Value Source: NWS Daily Summary

Daily Weather History Graph

Daily Weather History Graph

Search for Another Location

Airport:

Trip Planner

Search our weather history database for the weather conditions in past years. The results will help you decide how hot, cold, wet, or windy it might be!

Date:

Astronomy

Dec. 03, 2012 Rise Set
Actual Time 6:46 AM CST 4:42 PM CST
Civil Twilight 6:18 AM CST 5:10 PM CST
Nautical Twilight 5:46 AM CST 5:41 PM CST
Astronomical Twilight 5:16 AM CST 6:12 PM CST
Moon 9:23 PM CST (12/3) 10:14 AM CST (12/3)
Length of Visible Light 10h 52m
Length of Day
9h 56m
Waning Gibbous, 78% of the Moon is Illuminated
Dec 3
Waning Gibbous
Dec 6
Last Quarter
Dec 13
New
Dec 19
First Quarter
Dec 28
Full

Hourly Weather History & Observations

Time (CST) Temp. Dew Point Humidity Pressure Visibility Wind Dir Wind Speed Gust Speed Precip Events Conditions
12:15 AM 53.6 °F 51.8 °F 94% 30.19 in 10.0 mi SSE 6.9 mph - N/A   Clear
12:35 AM 55.4 °F 53.6 °F 94% 30.19 in 10.0 mi SSE 8.1 mph - N/A   Clear
12:55 AM 55.4 °F 51.8 °F 88% 30.18 in 10.0 mi SSE 6.9 mph - N/A   Clear
1:15 AM 55.4 °F 53.6 °F 94% 30.19 in 10.0 mi SSE 6.9 mph - N/A   Clear
1:35 AM 53.6 °F 50.0 °F 88% 30.19 in 10.0 mi SSE 6.9 mph - N/A   Clear
1:55 AM 53.6 °F 51.8 °F 94% 30.19 in 10.0 mi SSE 6.9 mph - N/A   Clear
2:15 AM 53.6 °F 50.0 °F 88% 30.19 in 10.0 mi SSE 8.1 mph - N/A   Scattered Clouds
2:35 AM 53.6 °F 51.8 °F 94% 30.19 in 10.0 mi SSE 6.9 mph - N/A   Partly Cloudy
2:55 AM 53.6 °F 50.0 °F 88% 30.19 in 10.0 mi SSE 5.8 mph - N/A   Clear
3:15 AM 53.6 °F 50.0 °F 88% 30.19 in 10.0 mi SSE 6.9 mph - N/A   Clear
3:35 AM 53.6 °F 50.0 °F 88% 30.19 in 10.0 mi SSE 9.2 mph - N/A   Clear
3:55 AM 53.6 °F 50.0 °F 88% 30.19 in 10.0 mi SSE 6.9 mph - N/A   Partly Cloudy
4:15 AM 53.6 °F 50.0 °F 88% 30.19 in 10.0 mi SSE 6.9 mph - N/A   Mostly Cloudy
4:35 AM 53.6 °F 50.0 °F 88% 30.19 in 10.0 mi SSE 5.8 mph - N/A   Scattered Clouds
4:55 AM 53.6 °F 50.0 °F 88% 30.19 in 10.0 mi SSE 6.9 mph - N/A   Clear
5:15 AM 53.6 °F 50.0 °F 88% 30.20 in 10.0 mi South 6.9 mph - N/A   Clear
5:35 AM 53.6 °F 50.0 °F 88% 30.20 in 10.0 mi SSE 6.9 mph - N/A   Clear
5:55 AM 53.6 °F 50.0 °F 88% 30.20 in 10.0 mi South 6.9 mph - N/A   Clear
6:15 AM 53.6 °F 50.0 °F 88% 30.20 in 10.0 mi SSE 9.2 mph - N/A   Clear
6:35 AM 53.6 °F 50.0 °F 88% 30.21 in 10.0 mi South 8.1 mph - N/A   Clear
6:55 AM 53.6 °F 50.0 °F 88% 30.21 in 10.0 mi South 10.4 mph - N/A   Clear
7:15 AM 53.6 °F 51.8 °F 94% 30.21 in 10.0 mi South 9.2 mph - N/A   Clear
7:35 AM 55.4 °F 53.6 °F 94% 30.22 in 10.0 mi SSE 8.1 mph - N/A   Clear
8:15 AM 57.2 °F 53.6 °F 88% 30.22 in 10.0 mi SSE 8.1 mph - N/A   Clear
8:35 AM 59.0 °F 55.4 °F 88% 30.22 in 10.0 mi South 8.1 mph - N/A   Clear
8:55 AM 60.8 °F 55.4 °F 82% 30.22 in 10.0 mi South 8.1 mph - N/A   Clear
9:15 AM 62.6 °F 55.4 °F 77% 30.22 in 10.0 mi South 8.1 mph - N/A   Clear
9:35 AM 64.4 °F 55.4 °F 73% 30.22 in 10.0 mi SSE 10.4 mph - N/A   Clear
9:55 AM 66.2 °F 55.4 °F 68% 30.22 in 10.0 mi South 10.4 mph - N/A   Clear
10:35 AM 68.0 °F 53.6 °F 60% 30.21 in 10.0 mi SSW 11.5 mph - N/A   Clear
10:55 AM 68.0 °F 53.6 °F 60% 30.20 in 10.0 mi South 10.4 mph - N/A   Clear
11:15 AM 69.8 °F 53.6 °F 56% 30.19 in 10.0 mi SSW 11.5 mph 19.6 mph N/A   Clear
11:55 AM 71.6 °F 53.6 °F 53% 30.17 in 10.0 mi South 12.7 mph - N/A   Clear
12:15 PM 73.4 °F 51.8 °F 47% 30.16 in 10.0 mi SSE 13.8 mph - N/A   Clear
12:35 PM 73.4 °F 51.8 °F 47% 30.15 in 10.0 mi SSE 9.2 mph 19.6 mph N/A   Clear
12:55 PM 73.4 °F 50.0 °F 44% 30.15 in 10.0 mi SSW 15.0 mph - N/A   Clear
1:15 PM 73.4 °F 50.0 °F 44% 30.14 in 10.0 mi South 15.0 mph 18.4 mph N/A   Clear
1:35 PM 73.4 °F 50.0 °F 44% 30.13 in 10.0 mi South 12.7 mph - N/A   Clear
1:55 PM 73.4 °F 50.0 °F 44% 30.13 in 10.0 mi South 15.0 mph - N/A   Clear
2:15 PM 73.4 °F 50.0 °F 44% 30.12 in 10.0 mi South 13.8 mph 19.6 mph N/A   Clear
2:35 PM 73.4 °F 50.0 °F 44% 30.12 in 10.0 mi South 10.4 mph - N/A   Clear
2:55 PM 73.4 °F 50.0 °F 44% 30.12 in 10.0 mi SSW 11.5 mph 16.1 mph N/A   Clear
3:15 PM 73.4 °F 50.0 °F 44% 30.12 in 10.0 mi South 13.8 mph 17.3 mph N/A   Clear
3:55 PM 71.6 °F 53.6 °F 53% 30.12 in 10.0 mi South 11.5 mph - N/A   Clear
4:15 PM 69.8 °F 53.6 °F 56% 30.12 in 10.0 mi South 9.2 mph - N/A   Clear
4:35 PM 68.0 °F 53.6 °F 60% 30.12 in 10.0 mi SSE 10.4 mph - N/A   Clear
4:55 PM 66.2 °F 53.6 °F 64% 30.12 in 10.0 mi SSE 9.2 mph - N/A   Clear
5:15 PM 66.2 °F 53.6 °F 64% 30.12 in 10.0 mi SSE 8.1 mph - N/A   Clear
5:55 PM 64.4 °F 53.6 °F 68% 30.13 in 10.0 mi South 8.1 mph - N/A   Clear
6:15 PM 64.4 °F 51.8 °F 64% 30.13 in 10.0 mi SSE 8.1 mph - N/A   Clear
6:35 PM 64.4 °F 51.8 °F 64% 30.14 in 10.0 mi SSE 8.1 mph - N/A   Clear
6:55 PM 64.4 °F 51.8 °F 64% 30.14 in 10.0 mi South 9.2 mph - N/A   Clear
7:15 PM 64.4 °F 51.8 °F 64% 30.14 in 10.0 mi South 9.2 mph - N/A   Scattered Clouds
7:35 PM 64.4 °F 51.8 °F 64% 30.14 in 10.0 mi South 6.9 mph - N/A   Mostly Cloudy
7:55 PM 64.4 °F 51.8 °F 64% 30.14 in 10.0 mi South 8.1 mph - N/A   Mostly Cloudy
8:15 PM 64.4 °F 51.8 °F 64% 30.14 in 10.0 mi SSE 8.1 mph - N/A   Overcast
8:35 PM 64.4 °F 51.8 °F 64% 30.13 in 10.0 mi SSE 8.1 mph - N/A   Overcast
8:55 PM 64.4 °F 51.8 °F 64% 30.14 in 10.0 mi SSE 5.8 mph - N/A   Overcast
9:15 PM 64.4 °F 51.8 °F 64% 30.14 in 10.0 mi SSE 8.1 mph - N/A   Overcast
9:35 PM 64.4 °F 53.6 °F 68% 30.14 in 10.0 mi South 9.2 mph - N/A   Overcast
9:55 PM 64.4 °F 53.6 °F 68% 30.14 in 10.0 mi SSE 9.2 mph - N/A   Overcast
10:15 PM 62.6 °F 51.8 °F 68% 30.14 in 10.0 mi SSE 9.2 mph - N/A   Overcast
10:35 PM 62.6 °F 51.8 °F 68% 30.14 in 10.0 mi SSE 9.2 mph - N/A   Overcast
10:55 PM 62.6 °F 51.8 °F 68% 30.14 in 10.0 mi SSE 10.4 mph - N/A   Overcast
11:15 PM 62.6 °F 53.6 °F 72% 30.14 in 10.0 mi South 10.4 mph - N/A   Overcast
11:35 PM 62.6 °F 53.6 °F 72% 30.13 in 10.0 mi SSE 11.5 mph - N/A   Mostly Cloudy
11:55 PM 62.6 °F 53.6 °F 72% 30.13 in 10.0 mi SSE 9.2 mph - N/A   Mostly Cloudy